Other Public Products
Issued by NWS Grand Forks, ND

Home | Current Version | Previous Version | Graphics & Text | Print | Product List | Glossary On
Versions: 1 2 3 4 5 6 7 8 9 10 11 12 13 14 15 16 17 18 19 20 21 22 23 24 25 26 27 28 29 30 31 32 33 34 35 36 37 38 39 40 41 42 43 44 45 46 47 48 49 50
000
FPUS83 KFGF 220410
OPUFGF
PRAIRIE TO PINES WEATHER ROUNDUP
NATIONAL WEATHER SERVICE EASTERN NORTH DAKOTA/GRAND FORKS ND
1100 PM CDT MON JUL 21 2014

 **SATELLITE DATA USED TO AUGMENT SKY COVER AT AUTOMATED STATIONS**
 *****  WEATHER ACROSS EASTERN NORTH DAKOTA  *****

CITY           SKY/WX    TMP DP  RH WIND       PRES   REMARKS
GRAND FORKS    RAIN      67  65  93 N35G55    29.63F FOG
GRAND FORKS AF CLOUDY    66  66 100 N17G35    29.74R
GRAND CITY NWS   N/A     66 N/A N/A NE10        N/A
BUXTON         NOT AVBL
DEVILS LAKE    CLOUDY    66  61  82 N7        29.85R
FARGO          LGT RAIN  69  67  93 SW7       29.74F
WAHPETON ARPT  CLOUDY    66  63  88 N7        29.77F
$$

 *****  WEATHER ACROSS CENTRAL AND WESTERN NORTH DAKOTA  *****

CITY           SKY/WX    TMP DP  RH WIND       PRES   REMARKS
JAMESTOWN      LGT RAIN  68  63  84 N17G30    29.78R
BISMARCK       CLOUDY    66  62  87 NW10      29.94R
MINOT          CLOUDY    64  61  90 NW6       29.96R
MINOT AFB      CLOUDY    64  64 100 NW7       29.96R
GARRISON         N/A     65  64  97 NW5       29.97R
WILLISTON      CLEAR     63  56  78 N3        29.99R
DICKINSON      CLEAR     63  60  90 N8        30.00R
HETTINGER      CLEAR     64  61  90 N6        30.01R
$$

 *****  OTHER OBSERVATIONS NORTHEAST NORTH DAKOTA  *****

CITY           SKY/WX    TMP DP  RH WIND       PRES   REMARKS
WALHALLA         N/A     64  64 100 N7          N/A
LANGDON        LGT RAIN  63  63 100 NE13      29.83F
CAVALIER       RAIN      66  64  94 NE12      29.81F
GRAFTON        RAIN      64  64 100 NE18      29.78F
CANDO          CLOUDY    63  63 100 N6        29.90R
FORT TOTTEN      N/A     64  63  97 NE5       29.95S
ROLLA          CLOUDY    61  61 100 NW5       29.95R
RUGBY          FAIR      63  63 100 N3        29.93R
 ***** THE ABOVE OBSERVATIONS ARE NON NWS ARE NOT QUALITY
        CONTROLLED AND MAY MIS-REPORT RAIN FOR SNOW...
$$

 *****  OTHER OBSERVATIONS SOUTHEAST NORTH DAKOTA *****

CITY           SKY/WX    TMP DP  RH WIND       PRES   REMARKS
COOPERSTOWN    NOT AVBL
VALLEY CITY    LGT RAIN  66  66 100 N24G35    29.84R
OAKES          NOT AVBL
GWINNER          N/A     68  68 100 W6        29.83R
SHEYENNE NWR     N/A     68  67  95 W2        29.95
BUFFALO        NOT AVBL
WYNDMERE       NOT AVBL
 ***** THE ABOVE OBSERVATIONS ARE NON NWS ARE NOT QUALITY
       CONTROLLED AND MAY MIS-REPORT RAIN FOR SNOW...
$$

  *****  WEATHER ACROSS NORTHERN MINNESOTA  *****

CITY           SKY/WX    TMP DP  RH WIND       PRES   REMARKS
FLAG ISLAND    CLOUDY    70  64  83 N23       29.74F
WARROAD        NOT AVBL
ROSEAU         CLOUDY    66  61  82 N9        29.81R
HALLOCK        TSTM      66  64  94 NE13      29.79F
THF RVR FALLS  CLOUDY    66  64  94 N25       29.74F THUNDER
HALSTAD        NOT AVBL
FOSSTON        RAIN      64  63  94 E3        29.77F
BAUDETTE       HVY RAIN  66  65  96 N41G48    29.65F VSB 3/4
WASKISH        TSTM      72  66  83 S16G41    29.75R
CROOKSTON      NOT AVBL
$$
  *****  WEATHER ACROSS CENTRAL AND WEST MINNESOTA  *****

CITY           SKY/WX    TMP DP  RH WIND       PRES   REMARKS
BEMIDJI        TSTM      65  64  96 W12G40    29.79R VSB 1
PARK RAPIDS    HVY RAIN  67  65  93 NW26G36   29.84R FOG
WADENA         CLOUDY    79  72  78 SW6       29.80R
DETROIT LAKES  TSTM      64  64 100 E10       29.79F
MOORHEAD       LGT RAIN  70  70 100 S8        29.74F
FERGUS FALLS   CLOUDY    66  64  94 NE5       29.78F
ELBOW LAKE     TSTM      68  66  95 CALM      29.81R
MORRIS MN      TSTM      70  64  83 NW14G29   29.82R
STAPLES        CLOUDY    79  72  78 SW7       29.80R
WHEATON        CLOUDY    66  64  94 CALM      29.80F
$$
  *****  WEATHER ELSEWHERE ACROSS MINNESOTA  *****

CITY           SKY/WX    TMP DP  RH WIND       PRES   REMARKS
DULUTH         CLOUDY    80  72  76 SE10      29.81F
INTRNTL FALLS  CLOUDY    79  73  82 NE8       29.71F
ELY            PTCLDY    77  70  78 SE7       29.80F
CLOQUET        CLOUDY    81  72  74 SE8G16    29.80F
BRAINERD       CLOUDY    80  73  79 S16G23    29.77S
HIBBING        CLOUDY    81  73  76 S7        29.78F
ALEXANDRIA     TSTM      68  65  90 W24G55    29.92R SQUALL  VSB 3/4
SAINT CLOUD    MOCLDY    82  75  78 S10       29.77F
MINNEAPOLIS    PTCLDY    82  74  76 S16G25    29.80F
$$

  *****  WEATHER ACROSS SOUTH DAKOTA  *****

CITY           SKY/WX    TMP DP  RH WIND       PRES   REMARKS
SIOUX FALLS    CLEAR     83  77  82 S9        29.81R HX  92
BROOKINGS      NOT AVBL
WATERTOWN      PTCLDY    79  76  90 SW9       29.81R
HURON          CLEAR     81  69  67 N15       29.81R
SISSETON         N/A     75  65  70 NW21      29.76R
ABERDEEN       PTCLDY    68  64  87 N9        29.82R
MITCHELL       CLEAR     78  76  93 CALM      29.80R
PIERRE         CLEAR     78  68  71 N10       29.86R
MOBRIDGE       CLEAR     67  64  90 N10       29.91R
RAPID CITY     CLEAR     73  56  54 N9        30.00R
$$

  *****  SOME WEATHER IN NEARBY STATES *****

CITY           SKY/WX    TMP DP  RH WIND       PRES   REMARKS
GLASGOW MT     MOCLDY    68  54  60 E8        29.99R
GREAT FALLS MT PTCLDY    68  41  37 NE7       30.07R
CHEYENNE WY    PTCLDY    70  46  42 W8        30.23R
SCOTTSBLUFF NE CLEAR     71  58  63 E7        30.02R
OMAHA NE       CLOUDY    87  76  69 SE13      29.85S HX  97
DES MOINES IA  CLEAR     84  75  74 S13       29.91S HX  92
DAVENPORT IA   CLEAR     77  68  73 S15       30.01F
CHICAGO IL     CLEAR     75  63  66 S9        30.05F
EAU CLAIRE WI  CLOUDY    80  69  69 S14       29.88F
LA CROSSE WI   CLOUDY    82  68  62 S10       29.92F
$$

  *****  SOME NATIONAL WEATHER *****

CITY           SKY/WX    TMP DP  RH WIND       PRES   REMARKS
LA GUARDIA NY  PTCLDY    75  61  61 SW9       30.16F
RALEIGH NC     CLOUDY    73  70  90 CALM      30.17S
ATLANTA GA     CLOUDY    77  73  87 E8        30.11R
NEW ORLEANS LA PTCLDY    82  73  74 CALM      30.00S
OKLAHOMA CITY  PTCLDY    80  73  79 S6        30.05R
ALBUQUERQUE NM MOCLDY    85  45  24 E7        30.21R
SALT LAKE CITY MOCLDY    84  31  14 S10       30.03R
LOS ANGELES CA PTCLDY    69  61  75 W10       29.99S
BOISE ID       MOCLDY    76  53  44 SE9       30.04R
SEATTLE WA     PTCLDY    69  49  48 SW3       29.99S
$$

*** WEATHER ACROSS MANITOBA...SASKATCHEWAN AND ONTARIO ***
                ***ONTARIO***

CITY           SKY/WX    TMP DP  RH WIND       PRES   REMARKS
GERALDTON      MOCLDY    73  68  83 S2        29.89S
THUNDER BAY    FOG       59  57  94 NE8       29.88R VSB 1
SIOUX LOOKOUT  TSTM      68  64  88 NW7       29.90R
TORONTO        CLEAR     72  61  68 CALM      30.12S
BIG TROUT LK   MOCLDY    64  50  59 NW7       29.85R
PICKLE LAKE    NOT AVBL
DRYDEN         LGT RAIN  66  64  94 NE12      29.84F
KENORA         TSTM      64  63  94 NE8       29.80F
$$
                *** MANITOBA***

CITY           SKY/WX    TMP DP  RH WIND       PRES   REMARKS
BRANDON        CLOUDY    64  64 100 N6        29.92R
DAUPHIN        MOCLDY    63  59  88 SW3       29.92R
ISLAND LAKE    PTCLDY    64  54  68 NE6       29.89F
PILOT MOUND      N/A     61  57  88 NW5         N/A
THE PAS        PTCLDY    63  54  72 N5        29.97R
THOMPSON       PTCLDY    54  48  82 NE9       29.99S
WINNIPEG       LGT RAIN  64  61  88 N6        29.86R
LYNN LAKE      CLEAR     54  50  87 N5        30.01R
CHURCHILL      MOCLDY    50  45  81 NW7       29.94R
GILLAM         CLOUDY    54  48  82 NW6       29.96R
$$
                ***SASKATCHEWAN***

CITY           SKY/WX    TMP DP  RH WIND       PRES   REMARKS
ESTEVAN        MOCLDY    63  63 100 NW3       30.00R
KINDERSLEY     PTCLDY    61  55  82 NE3       30.05R
LLOYDMINSTER   CLEAR     59  52  77 W2        30.04R
PRINCE ALBERT  MOCLDY    61  57  88 CALM      29.99R
REGINA         MOCLDY    64  57  77 NW3       30.00R


USA.gov is the U.S. government's official web portal to all federal, state and local government web resources and services.